Content
SEND FEEDBACK

Daily
Averages
Monthly
Summary
United States of America

MAURICEVILLE, TEXAS


Home > North America > United States > Texas
Elevation: 20 feet     Latitude: 30 14N     Longitude: 093 44W

WEATHER
 
SELECT A DAY
Number of Records: 109,545;   Date Range: 8/25/05 - 8/27/14
 
SHARE

PRINT THIS DATA

[ ← Previous Day ]
WEATHER ALMANAC - MARCH 7, 2013
[ Next Day → ]
[ °C ]   °F
Weather ElementAverageHighLow
Temperature50.8 °F66.2 °F (3:15 pm)37.4 °F (2:15 am)
Dewpoint41.7 °F44.6 °F (8:15 am)37.4 °F (2:15 am)
Humidity75.1 %100 % (12:35 am)40 % (2:15 pm)
Barometer30.28 in30.35 in (9:55 am)30.23 in (4:15 pm)
Wind Speed3.3 mph9.2 mph (1:55 pm)
Weather ElementAverage
Visibility9.8 mi
Wind DirectionENE (57.7 °)

Weather ElementTotal
Precipitation---
Heating Degree Days13.2 (Base 65)
Growing Degree Days1.8 (Base 50)
Averaged from 65 records on March 7, 2013
WEATHER CONDITIONS BREAKOUT
WIND DIRECTION BREAKOUT
WEATHER BY HOUR - MARCH 7, 2013
[ °C ]   °F
Local TimeTemperatureDewpointHumidityBarometerVisibilityWind DirectionWind SpeedGust SpeedPrecipitationEventsConditions
12:35 AM42.8 °F42.8 °F100 %30.27 in10.0 miCalmClear
12:55 AM41.0 °F41.0 °F100 %30.26 in10.0 miCalmClear
1:15 AM41.0 °F41.0 °F100 %30.28 in10.0 miCalmClear
1:35 AM39.2 °F39.2 °F100 %30.28 in10.0 miCalmClear
1:55 AM41.0 °F41.0 °F100 %30.29 in10.0 miCalmClear
2:15 AM37.4 °F37.4 °F100 %30.26 in10.0 miCalmClear
2:35 AM39.2 °F39.2 °F100 %30.25 in10.0 miCalmClear
2:55 AM39.2 °F39.2 °F100 %30.26 in10.0 miCalmClear
3:15 AM37.4 °F37.4 °F100 %30.26 in10.0 miCalmClear
3:35 AM37.4 °F37.4 °F100 %30.25 in7.0 miCalmClear
3:55 AM37.4 °F37.4 °F100 %30.24 in10.0 miCalmClear
4:15 AM39.2 °F39.2 °F100 %30.25 in10.0 miCalmClear
4:55 AM37.4 °F37.4 °F100 %30.26 in10.0 miCalmClear
5:15 AM37.4 °F37.4 °F100 %30.26 in10.0 miCalmClear
5:35 AM39.2 °F37.4 °F93 %30.27 in10.0 miCalmClear
5:55 AM37.4 °F37.4 °F100 %30.27 in10.0 miCalmClear
6:15 AM39.2 °F37.4 °F93 %30.27 in10.0 miCalmClear
6:35 AM39.2 °F37.4 °F93 %30.28 in10.0 miCalmClear
6:55 AM41.0 °F37.4 °F87 %30.29 in10.0 miCalmClear
7:15 AM41.0 °F39.2 °F93 %30.29 in10.0 miCalmClear
7:35 AM44.6 °F42.8 °F93 %30.30 in10.0 miCalmClear
7:55 AM46.4 °F42.8 °F87 %30.31 in10.0 miEast (80°)6.9 mphClear
8:15 AM48.2 °F44.6 °F87 %30.32 in10.0 miENE (70°)5.8 mphClear
8:35 AM50.0 °F44.6 °F82 %30.33 in10.0 miEast (80°)5.8 mphClear
8:55 AM51.8 °F44.6 °F76 %30.34 in10.0 miEast (80°)5.8 mphClear
9:15 AM53.6 °F44.6 °F72 %30.34 in0.2 miEast (90°)6.9 mphHaze
9:35 AM53.6 °F44.6 °F72 %30.34 in10.0 miEast (100°)5.8 mphClear
9:55 AM55.4 °F44.6 °F67 %30.35 in10.0 miESE (120°)6.9 mphClear
10:15 AM57.2 °F44.6 °F63 %30.34 in10.0 miEast (90°)8.1 mphClear
10:35 AM59.0 °F44.6 °F59 %30.34 in10.0 miESE (120°)5.8 mphClear
10:55 AM59.0 °F44.6 °F59 %30.34 in10.0 miESE (110°)5.8 mphClear
11:15 AM59.0 °F42.8 °F55 %30.34 in10.0 miESE (110°)4.6 mphClear
11:35 AM59.0 °F42.8 °F55 %30.33 in10.0 miESE (120°)4.6 mphClear
11:55 AM59.0 °F42.8 °F55 %30.32 in10.0 miENE (70°)6.9 mphClear
12:15 PM60.8 °F42.8 °F52 %30.31 in10.0 miESE (120°)6.9 mphClear
12:35 PM60.8 °F41.0 °F48 %30.30 in10.0 miESE (120°)5.8 mphClear
12:55 PM60.8 °F41.0 °F48 %30.29 in10.0 miEast (90°)6.9 mphClear
1:15 PM62.6 °F41.0 °F45 %30.29 in10.0 miESE (120°)8.1 mphClear
1:35 PM62.6 °F39.2 °F42 %30.28 in10.0 miEast (90°)5.8 mphClear
1:55 PM64.4 °F41.0 °F42 %30.27 in10.0 miESE (110°)9.2 mphClear
2:15 PM64.4 °F39.2 °F40 %30.26 in10.0 miESE (110°)6.9 mphClear
2:35 PM64.4 °F39.2 °F40 %30.26 in10.0 miESE (110°)5.8 mphClear
2:55 PM64.4 °F39.2 °F40 %30.26 in10.0 miEast (100°)5.8 mphClear
3:15 PM66.2 °F41.0 °F40 %30.24 in10.0 miSE (130°)6.9 mphClear
3:35 PM64.4 °F39.2 °F40 %30.24 in10.0 miEast (80°)8.1 mphClear
3:55 PM64.4 °F39.2 °F40 %30.24 in10.0 miEast (80°)6.9 mphClear
4:15 PM64.4 °F42.8 °F45 %30.23 in10.0 miSE (140°)6.9 mphClear
4:35 PM62.6 °F42.8 °F48 %30.24 in10.0 miSSE (160°)6.9 mphClear
4:55 PM62.6 °F44.6 °F52 %30.24 in10.0 miSouth (170°)9.2 mphClear
5:15 PM60.8 °F42.8 °F52 %30.23 in10.0 miSSE (160°)8.1 mphClear
5:35 PM60.8 °F42.8 °F52 %30.23 in10.0 miSSE (160°)8.1 mphClear
5:55 PM59.0 °F44.6 °F59 %30.24 in10.0 miSSE (160°)6.9 mphClear
7:35 PM53.6 °F44.6 °F72 %30.25 in10.0 miSSE (150°)3.5 mphClear
8:15 PM51.8 °F44.6 °F76 %30.25 in10.0 miSSE (150°)3.5 mphClear
8:35 PM50.0 °F44.6 °F82 %30.26 in10.0 miCalmClear
8:55 PM51.8 °F44.6 °F76 %30.26 in10.0 miCalmClear
9:15 PM50.0 °F44.6 °F82 %30.26 in10.0 miCalmClear
9:35 PM46.4 °F44.6 °F93 %30.26 in10.0 miCalmClear
9:55 PM50.0 °F44.6 °F82 %30.26 in10.0 miCalmClear
10:15 PM50.0 °F44.6 °F82 %30.26 in10.0 miCalmClear
10:35 PM48.2 °F44.6 °F87 %30.25 in10.0 miCalmClear
10:55 PM46.4 °F44.6 °F93 %30.25 in10.0 miCalmClear
11:15 PM44.6 °F44.6 °F100 %30.24 in10.0 miCalmClear
11:35 PM44.6 °F44.6 °F100 %30.25 in10.0 miCalmClear
11:55 PM44.6 °F42.8 °F93 %30.25 in10.0 miCalmClear
Hourly data recorded from KORG, located miles away from Mauriceville, Texas







STORIES FROM OUR PARTNERS